Location: Unspecified
(51.5147°N, 7.4673°E)
Time: 07:47:00
(UTC+01:00)

SR - Visible Passes

Search period start: 18 February 2026 00:00
Search period end: 28 February 2026 00:00
Orbit: 574 x 847 km, 66.7° (Epoch: 17 February)

Date Brightness Start Highest point End Pass type
(mag) Time Alt. Az. Time Alt. Az. Time Alt. Az.
18 Feb ? 03:58:15 14° ESE 03:58:15 14° ESE 04:00:20 10° ENE visible
18 Feb ? 05:37:19 36° SW 05:39:02 89° NNW 05:43:34 10° NE visible
19 Feb ? 04:44:11 43° ESE 04:44:12 43° ESE 04:48:27 10° NE visible
19 Feb ? 06:23:14 18° W 06:25:58 34° NW 06:30:11 10° NNE visible
20 Feb ? 03:50:56 18° E 03:50:56 18° E 03:52:53 10° ENE visible
20 Feb ? 05:29:59 52° W 05:30:47 63° NW 05:35:19 10° NE visible
21 Feb ? 04:36:41 52° ENE 04:36:41 52° ENE 04:40:19 10° NE visible
21 Feb ? 06:15:43 18° WNW 06:17:53 27° NNW 06:21:52 10° NNE visible
22 Feb ? 03:43:18 20° ENE 03:43:18 20° ENE 03:45:02 10° NE visible
22 Feb ? 05:22:21 44° NW 05:22:36 45° NW 05:27:02 10° NNE visible
23 Feb ? 04:28:55 44° NE 04:28:55 44° NE 04:32:07 10° NE visible
23 Feb ? 06:07:57 17° WNW 06:09:53 22° NNW 06:13:33 10° NNE visible
24 Feb ? 03:35:26 20° NE 03:35:26 20° NE 03:37:00 10° NE visible
24 Feb ? 05:14:29 34° NW 05:14:29 34° NW 05:18:43 10° NNE visible
25 Feb ? 04:20:58 35° NNE 04:20:58 35° NNE 04:23:51 10° NE visible
25 Feb ? 06:00:00 15° NW 06:01:55 19° NNW 06:05:15 10° NNE visible
26 Feb ? 03:27:25 20° NE 03:27:25 20° NE 03:28:51 10° NE visible
26 Feb ? 05:06:27 27° NNW 05:06:27 27° NNW 05:10:24 10° NNE visible
26 Feb ? 06:47:20 10° NW 06:49:42 14° N 06:52:08 10° NNE visible
27 Feb ? 04:12:53 29° N 04:12:53 29° N 04:15:34 10° NNE visible
27 Feb ? 05:51:54 13° NW 05:53:59 16° NNW 05:56:59 10° NNE visible
